This is the latest recevied weather packets stored in our database for station/object IK8SUT-10. If no packets are shown the sender has not sent any weather packets the latest 10 day(s).
| Time | Temp. | Humidity | Pressure | Rain* | Wind** | Luminosity | Snow |
|---|---|---|---|---|---|---|---|
| 1787779696 | 32.22° C | 58% | 1019.3 hPa | - | - | - | - |
| 1787778795 | 32.22° C | 58% | 1019 hPa | - | - | - | - |
| 1787777895 | 32.22° C | 57% | 1019 hPa | - | - | - | - |
| 1787776994 | 32.22° C | 56% | 1018.9 hPa | - | - | - | - |
| 1787776112 | 32.22° C | 58% | 1018.7 hPa | - | - | - | - |
| 1787775211 | 32.22° C | 58% | 1018.9 hPa | - | - | - | - |
| 1787774310 | 32.22° C | 59% | 1018.9 hPa | - | - | - | - |
| 1787773410 | 32.22° C | 61% | 1018.9 hPa | - | - | - | - |
| 1787772509 | 32.22° C | 61% | 1018.8 hPa | - | - | - | - |
| 1787771608 | 32.22° C | 62% | 1018.7 hPa | - | - | - | - |
| 1787770707 | 32.22° C | 63% | 1018.6 hPa | - | - | - | - |
| 1787769806 | 32.22° C | 61% | 1018.3 hPa | - | - | - | - |
| 1787768909 | 32.22° C | 65% | 1018.4 hPa | - | - | - | - |
| 1787768005 | 32.78° C | 67% | 1018.1 hPa | - | - | - | - |
| 1787767104 | 32.78° C | 66% | 1018.1 hPa | - | - | - | - |
| 1787766203 | 32.78° C | 66% | 1018.1 hPa | - | - | - | - |
| 1787765302 | 32.78° C | 64% | 1018.1 hPa | - | - | - | - |
| 1787764402 | 32.78° C | 64% | 1018 hPa | - | - | - | - |
| 1787763501 | 32.78° C | 57% | 1017.8 hPa | - | - | - | - |
| 1787762600 | 32.78° C | 48% | 1017.5 hPa | - | - | - | - |
| 1787761699 | 32.78° C | 48% | 1017.4 hPa | - | - | - | - |
| 1787760798 | 32.78° C | 50% | 1017.5 hPa | - | - | - | - |
| 1787759898 | 32.78° C | 52% | 1017.5 hPa | - | - | - | - |
| 1787758997 | 32.78° C | 55% | 1017.7 hPa | - | - | - | - |
| 1787758096 | 32.78° C | 55% | 1017.9 hPa | - | - | - | - |
* Rain since midnight (hover to see other rain measurements)
** Current wind speed in m/s (hover to see current wind gust speed)